GFSCGP_850_thetae_063.txt.gz
Theta_e
318 316 316 317 317 318 320 319 318 317 315 320 319 318 318 325 326 328 330 330 329 325 321 324 327 327 328 328 327 323 317 319 323 325 327 327 327 325 321 320 318 314 313 312
317 318 317 319 319 320 320 320 319 318 316 318 317 318 316 321 323 327 329 329 328 326 324 322 326 327 327 327 324 319 316 319 325 327 327 326 326 324 322 320 317 316 314 313
317 318 318 320 320 320 319 320 319 319 316 317 315 318 318 322 323 324 328 328 328 324 323 321 324 328 328 327 325 318 317 321 324 327 327 326 324 322 322 320 318 316 314 312
318 318 319 320 319 319 320 318 318 319 315 317 316 318 318 320 324 321 324 326 327 325 323 322 324 326 324 324 326 326 323 324 326 328 327 326 324 324 322 319 316 313 313 313
317 319 319 319 318 318 319 319 319 320 318 318 319 316 315 317 324 323 320 322 323 326 325 324 323 323 324 323 325 328 328 328 328 328 327 325 322 318 316 316 314 314 314 313
316 318 317 317 319 318 319 320 318 317 317 318 319 317 316 317 320 324 322 321 321 323 323 323 323 323 323 324 326 328 328 328 328 328 327 324 321 316 315 315 314 314 313 312
317 318 318 319 320 318 318 317 318 318 318 319 319 319 318 317 316 317 321 322 322 322 323 323 323 324 324 326 328 328 328 328 328 327 324 323 322 317 316 315 315 314 313 311
316 317 318 318 319 319 320 317 317 321 320 317 320 322 319 319 319 318 319 322 323 324 324 326 327 327 328 329 328 328 328 326 324 324 324 322 320 318 316 315 315 314 311 311
317 318 320 320 320 317 320 320 318 319 317 319 317 316 316 317 318 320 323 322 324 325 325 326 328 328 330 330 328 327 324 324 325 325 323 320 321 318 316 315 311 311 308 309
315 319 320 319 320 319 317 318 320 318 319 318 315 316 316 317 320 320 321 325 324 326 327 327 328 329 330 329 327 325 323 324 325 322 320 319 318 316 314 313 310 310 309 306
317 315 316 320 319 318 319 318 317 317 314 317 317 316 313 318 318 320 318 324 327 327 327 328 329 330 330 328 325 325 325 325 324 320 318 318 317 315 312 309 309 310 309 301
316 315 315 318 318 318 317 317 316 315 317 315 314 315 313 315 316 320 321 322 326 329 329 329 330 331 329 327 326 325 325 324 322 320 319 317 315 312 309 309 312 303 301 299
317 316 317 317 317 318 319 316 317 316 312 315 314 315 313 312 315 319 321 322 323 327 329 330 331 329 328 327 324 323 322 321 319 317 313 310 309 309 311 307 302 303 299 298
317 316 317 317 317 317 319 319 316 316 314 315 314 315 315 315 314 316 318 322 324 325 327 328 328 328 328 325 322 321 320 318 317 314 312 311 311 312 310 302 301 298 297 294
316 318 316 316 316 317 317 318 316 316 315 316 316 314 315 313 313 314 317 319 321 324 325 325 324 325 326 325 323 320 319 318 318 314 314 313 311 305 301 299 298 295 295 297
316 315 316 317 316 315 318 317 316 316 316 315 315 314 312 313 313 313 314 317 319 321 324 324 322 322 323 323 321 319 318 317 314 314 312 308 302 300 297 295 296 297 299 299
316 315 312 315 313 314 314 313 315 315 314 314 315 313 312 312 311 312 313 315 318 320 322 323 322 321 320 320 319 319 317 314 313 308 303 299 297 295 295 298 300 300 295 292
315 313 309 311 310 313 314 314 314 313 312 310 313 312 311 312 313 314 315 316 319 319 320 320 320 320 319 319 317 316 314 311 304 301 298 296 297 299 299 299 297 294 291 291
316 311 311 312 313 313 317 314 312 311 312 312 312 311 313 314 315 314 315 317 319 320 320 320 320 320 319 318 317 313 306 302 299 297 296 298 298 301 300 295 294 292 290 291
313 310 312 307 311 314 315 313 312 310 311 312 311 311 312 312 308 309 313 315 318 319 319 319 318 318 316 312 309 305 300 298 296 296 297 298 300 300 295 293 291 290 291 291
310 308 311 305 307 312 311 312 312 310 310 312 313 313 312 310 309 312 312 313 314 315 315 314 313 311 308 304 302 299 297 296 297 299 300 300 296 294 291 290 290 290 290 290
315 313 308 304 304 316 312 312 311 309 312 314 314 314 314 312 310 310 309 310 310 311 309 307 306 302 298 298 298 297 298 300 301 300 297 294 291 291 290 290 290 290 290 289
315 312 313 312 312 312 313 312 314 314 315 315 315 314 314 312 309 309 308 306 305 303 302 301 301 298 297 298 298 300 299 298 294 292 291 291 291 291 291 291 291 291 291 291
315 313 312 313 314 313 313 314 314 315 315 315 314 314 314 312 308 306 304 302 301 300 299 299 299 298 299 297 296 294 292 292 292 292 292 291 292 292 292 292 292 291 291 291
314 314 314 313 313 313 313 313 314 314 314 314 314 314 313 312 305 304 301 300 299 299 298 299 298 297 295 293 292 292 292 292 292 291 291 292 292 292 292 292 292 291 292 291
313 314 313 313 313 313 313 313 312 313 313 313 313 312 308 309 305 301 299 299 299 299 297 296 295 294 293 293 292 292 292 291 291 291 291 290 290 289 288 288 287 287 286 286

GFSCGP_850_thetae_066.txt.gz
Theta_e
317 315 316 315 314 315 317 318 318 315 315 318 318 318 322 322 327 329 328 328 328 327 326 325 323 324 325 326 328 328 329 326 323 323 324 323 325 327 326 322 319 319 317 314
316 316 315 316 317 318 319 319 318 317 315 316 316 317 316 322 326 327 330 330 329 327 326 326 324 323 323 326 328 328 327 326 323 322 323 324 326 326 324 321 320 316 313 312
316 317 316 319 319 319 318 319 318 318 316 316 315 316 317 319 325 326 327 329 330 328 325 324 324 325 324 324 324 325 325 322 321 320 324 326 326 325 321 321 319 316 314 312
316 316 317 318 319 317 319 317 317 318 315 316 314 316 315 318 323 321 323 327 329 329 327 322 320 323 322 322 324 325 325 321 320 321 324 326 326 324 323 322 320 317 314 312
316 318 318 318 318 317 318 318 319 318 316 316 317 314 314 319 323 323 321 325 328 328 328 324 321 322 323 324 325 326 325 321 320 321 325 326 325 324 323 322 319 315 313 313
315 317 317 317 317 317 317 319 315 314 316 318 317 316 315 316 321 322 322 322 325 328 328 325 323 322 323 324 327 326 325 323 319 323 326 326 325 324 320 319 316 314 313 313
316 317 317 318 319 317 317 315 316 317 317 319 317 318 317 316 315 317 320 322 323 327 327 326 323 322 322 324 325 324 324 325 325 325 327 326 324 323 318 315 315 314 314 314
315 314 317 317 317 316 318 316 316 320 318 317 316 320 318 317 318 318 318 320 322 323 325 325 325 323 323 323 324 324 324 325 326 326 327 326 325 322 320 316 315 314 314 313
315 316 318 319 318 317 319 318 315 317 315 318 316 314 312 315 318 320 322 318 320 321 322 324 323 323 323 323 324 325 326 327 327 327 327 325 323 321 319 317 316 315 314 312
314 317 319 319 319 316 317 316 318 316 320 318 314 314 314 315 316 318 322 321 320 321 322 322 322 322 322 323 326 327 328 327 328 326 324 323 321 320 320 319 316 315 312 309
313 313 314 319 319 317 318 317 315 315 313 316 316 314 311 315 316 317 318 321 323 323 323 323 323 323 323 325 327 328 325 324 323 322 323 322 321 320 321 318 315 313 309 311
314 312 313 316 317 315 315 316 315 316 316 314 312 314 312 311 312 317 319 321 322 324 325 325 325 324 326 328 327 327 324 323 323 323 324 322 320 318 316 311 308 309 310 307
315 313 313 314 314 316 319 316 315 313 311 315 313 315 312 311 312 317 317 320 322 323 326 326 327 327 327 329 329 326 325 324 324 324 321 318 315 311 310 308 311 309 304 299
316 314 313 315 314 314 318 317 315 315 313 314 313 315 313 312 313 313 316 318 319 322 324 327 328 328 328 330 329 326 325 324 325 320 317 316 313 312 310 311 306 302 299 298
314 315 314 314 315 314 315 316 313 314 314 315 315 313 313 313 312 313 316 315 315 319 323 325 328 329 329 329 327 325 324 324 321 316 314 311 311 310 309 302 299 298 297 295
313 315 314 317 315 315 318 316 314 314 315 313 314 313 311 313 312 312 312 313 314 316 321 323 325 327 327 327 325 322 321 318 315 314 312 311 309 306 300 297 297 296 298 300
314 313 312 316 312 314 314 313 314 314 313 314 314 312 312 312 311 312 313 313 315 317 318 321 322 322 323 323 322 319 317 316 315 312 311 308 302 299 297 296 297 299 300 299
313 312 309 312 309 311 313 313 312 313 312 310 309 312 311 310 311 312 314 316 318 318 319 320 320 320 319 320 320 318 316 314 312 310 306 300 296 297 299 299 299 299 296 293
313 310 310 314 312 312 314 314 312 312 312 309 309 311 311 312 313 311 313 317 318 319 319 319 319 318 318 317 316 315 312 310 306 301 297 297 298 298 299 299 298 295 293 291
311 309 311 307 311 314 313 313 310 309 311 309 310 310 310 310 307 306 310 314 316 317 318 318 317 317 316 314 312 310 307 302 298 296 297 297 298 299 299 296 294 291 290 290
311 308 310 304 308 312 312 311 310 311 311 309 312 313 311 308 306 307 309 312 314 315 315 315 314 314 312 310 307 303 297 296 297 298 299 299 300 297 294 291 290 290 290 290
317 314 309 304 306 317 311 311 310 309 310 312 312 313 312 311 308 309 309 310 310 311 309 308 308 304 300 299 300 298 297 298 299 299 298 296 292 291 291 291 291 291 291 291
318 316 315 314 314 313 312 312 313 312 312 313 313 313 313 311 308 308 307 307 306 305 304 302 301 297 297 298 299 299 297 298 298 296 292 291 291 291 291 291 291 291 291 291
313 311 312 313 312 311 313 313 313 313 314 314 314 314 312 311 309 307 305 303 301 300 300 299 298 298 297 296 297 298 300 294 292 292 291 291 291 291 291 291 290 290 289 288
313 313 312 311 312 313 314 314 314 314 314 314 314 313 312 312 307 306 303 300 299 298 298 298 298 297 297 298 297 293 292 292 291 291 291 290 289 288 287 287 286 285 284 282
313 313 313 314 314 314 314 314 313 314 314 314 314 311 309 309 308 303 300 298 298 298 298 297 296 300 298 293 292 292 291 290 289 288 288 288 287 286 285 284 284 283 283 282

GFSCGP_850_thetae_069.txt.gz
Theta_e
316 319 321 319 317 316 318 319 320 318 317 318 319 320 324 325 328 328 327 326 325 327 323 322 323 322 320 320 323 326 328 328 324 317 322 324 325 324 324 324 325 321 318 318
318 320 317 315 316 318 319 320 320 319 317 318 318 319 321 324 327 328 328 327 326 325 326 323 322 323 322 322 323 325 327 327 327 322 321 323 323 324 325 324 320 318 318 316
319 318 316 319 319 319 320 320 320 320 317 316 317 319 318 320 324 327 328 328 328 327 325 325 324 322 323 324 325 326 328 327 327 325 322 323 324 325 325 321 319 319 316 313
318 316 318 319 319 319 320 318 318 319 319 320 315 320 317 319 323 325 327 328 329 329 328 325 325 325 325 323 323 326 327 327 325 325 323 322 324 325 324 323 321 320 315 313
318 318 318 319 319 318 320 318 319 319 318 318 318 319 319 318 321 323 324 326 328 328 328 327 325 323 324 325 324 324 326 327 326 324 323 322 325 325 324 322 320 318 315 313
316 316 317 319 317 317 317 319 317 317 319 323 319 319 321 320 321 322 322 324 325 327 328 328 326 323 321 321 324 325 325 326 326 325 322 320 325 325 324 322 320 318 315 314
316 317 317 317 319 317 318 319 321 322 323 323 319 320 321 319 318 318 320 322 323 325 326 327 328 325 322 321 322 324 325 325 326 325 323 321 322 324 324 323 321 319 316 314
318 318 317 316 319 319 319 320 323 320 321 320 317 322 321 318 317 318 318 319 318 322 325 326 327 327 324 322 321 322 324 326 324 324 324 321 324 325 323 320 317 316 315 314
316 316 316 318 318 319 320 321 317 319 317 322 320 318 317 315 318 319 321 322 318 319 321 324 326 327 326 323 322 322 323 324 323 324 324 325 325 325 323 321 318 315 315 314
316 318 318 319 318 317 319 319 322 320 321 321 318 316 319 319 318 319 322 323 322 318 320 321 323 326 326 325 323 322 322 323 324 325 325 326 326 325 322 321 320 315 314 312
315 317 316 319 321 321 320 320 317 318 319 322 321 320 317 318 318 319 320 320 321 322 321 321 321 322 323 323 324 323 323 325 326 326 327 326 325 322 322 321 320 315 313 309
316 317 317 319 316 316 317 320 319 324 320 317 318 319 316 316 315 314 318 319 320 321 322 323 322 322 323 323 323 323 324 326 323 325 325 324 323 323 322 321 318 313 309 312
316 315 317 316 316 317 320 317 316 316 316 319 324 322 315 314 315 315 316 318 319 321 322 323 324 324 324 324 324 324 326 326 322 323 322 322 324 322 320 314 313 310 311 309
315 316 317 318 317 317 319 319 317 319 321 321 319 320 318 317 316 316 315 316 315 317 321 322 324 326 326 326 325 325 327 326 324 322 322 322 319 313 310 311 308 309 305 301
317 318 316 315 313 315 317 318 317 318 319 321 321 316 318 317 317 315 314 314 315 315 316 321 324 326 327 327 326 326 325 324 323 322 320 315 310 308 311 308 304 302 301 297
314 318 315 316 314 315 317 316 315 316 315 316 315 316 315 315 313 313 312 313 314 315 315 317 321 324 326 327 327 325 324 322 321 318 314 309 308 313 307 300 302 299 296 298
315 316 317 319 314 316 317 317 317 316 316 317 318 318 314 313 312 313 312 313 315 316 317 318 320 322 324 324 324 321 320 319 317 314 309 310 310 302 299 300 298 298 299 300
315 315 314 318 312 320 319 313 314 316 316 314 313 313 313 312 311 311 313 315 317 318 319 319 320 320 320 321 321 320 317 315 312 309 310 305 299 297 298 298 299 299 299 296
314 313 314 319 318 316 314 314 315 316 316 313 314 312 312 311 310 309 312 315 317 318 319 319 319 318 318 318 318 316 313 311 309 308 303 298 298 298 298 300 299 298 295 292
311 311 319 311 319 320 317 313 311 312 317 313 311 313 313 311 317 314 312 314 316 317 318 318 318 317 316 315 314 312 310 309 305 299 298 298 298 299 299 299 295 292 290 290
314 312 317 312 319 317 313 311 310 320 319 311 311 312 312 312 311 309 311 312 313 315 316 315 314 314 312 310 310 309 303 300 298 298 298 298 299 299 295 292 291 290 290 291
319 318 317 312 316 320 312 309 315 316 310 311 311 312 311 309 307 308 308 309 310 312 312 311 311 309 306 304 305 300 298 298 299 298 298 299 298 293 291 291 291 291 291 291
320 318 319 318 320 315 311 315 313 313 313 312 312 313 313 309 307 306 307 307 307 308 307 305 305 299 298 298 298 297 298 298 299 301 299 292 291 291 291 291 290 289 287 286
314 312 317 316 316 313 313 312 313 312 312 313 313 313 312 311 307 306 305 304 304 303 302 300 299 298 298 298 298 298 299 300 296 292 291 291 291 290 288 287 286 285 284 283
315 314 314 315 313 313 314 314 313 313 312 313 313 313 312 310 307 307 304 302 300 299 299 298 298 297 296 297 299 298 294 292 291 291 290 288 288 287 286 285 284 283 282 282
314 315 317 318 315 316 317 318 317 314 313 313 313 311 309 309 309 305 301 299 298 298 297 297 297 298 298 297 293 292 291 290 289 288 287 287 286 285 284 283 283 282 281 281

GFSCGP_850_thetae_072.txt.gz
Theta_e
320 322 323 321 320 321 321 321 321 321 321 322 322 322 324 329 328 326 326 326 329 327 326 325 325 324 324 323 324 326 327 326 324 319 318 318 320 324 322 322 323 324 323 321
321 323 322 320 320 321 321 321 322 321 321 321 322 323 323 328 329 328 327 327 326 328 326 325 324 325 324 325 326 327 327 328 328 324 322 324 324 323 324 323 324 324 322 319
321 321 320 321 321 321 321 322 322 321 322 321 322 323 323 324 327 328 328 328 328 326 327 325 325 325 325 325 325 326 328 328 327 328 324 325 325 323 324 324 324 322 319 319
320 321 320 321 320 322 322 322 322 322 323 323 321 322 322 323 325 327 328 329 329 329 326 327 326 326 327 327 326 326 327 329 328 327 326 322 324 325 323 324 323 320 318 317
320 320 320 321 322 321 322 321 322 323 323 323 322 321 322 322 323 324 326 328 330 330 329 326 327 327 327 327 328 329 329 329 328 327 327 325 325 325 324 324 323 319 318 315
320 319 321 321 321 321 321 322 323 324 324 324 322 322 321 322 322 323 323 324 328 330 330 330 328 327 327 328 329 328 327 326 327 327 326 325 325 322 324 324 324 319 316 316
320 320 320 320 322 321 322 324 325 325 325 324 323 323 322 321 322 323 323 323 324 327 329 331 330 329 327 328 327 326 326 327 326 326 327 325 322 320 322 324 324 317 316 317
321 321 320 320 321 321 322 323 324 322 323 323 321 321 321 322 322 321 323 323 323 324 326 329 330 330 328 327 323 321 322 325 325 325 326 326 324 322 319 323 323 319 318 316
320 320 319 320 321 321 324 323 322 323 323 324 321 321 320 321 320 323 324 325 326 323 324 326 329 330 330 329 323 321 321 323 324 324 325 324 325 324 322 324 323 319 317 315
319 319 319 321 321 321 323 322 323 323 323 322 321 321 320 320 320 323 322 321 326 323 323 324 326 328 329 330 329 324 323 322 323 324 326 324 324 324 323 325 322 317 315 314
319 320 322 322 322 322 323 323 322 322 323 323 322 322 320 320 320 321 322 323 323 326 324 324 324 326 327 329 329 328 325 325 327 324 324 324 324 325 325 323 322 320 316 314
319 320 320 320 321 321 322 322 323 322 322 323 323 322 321 321 321 321 321 321 323 323 326 326 326 326 327 328 329 328 327 326 327 325 324 324 324 324 324 322 320 319 314 312
319 320 321 319 319 320 321 322 322 322 322 321 326 322 321 321 321 321 321 320 321 323 325 327 327 328 328 328 328 328 328 326 323 324 325 324 324 322 322 321 319 315 312 310
318 320 320 320 319 318 320 319 320 321 323 320 321 321 320 321 322 321 321 320 320 320 322 326 328 329 329 329 328 327 326 323 323 325 323 323 322 319 319 319 310 311 309 309
320 319 320 319 318 318 318 318 319 320 320 320 321 320 320 321 321 321 320 319 318 318 319 321 326 329 329 328 328 325 323 324 325 323 322 322 319 319 315 311 311 309 307 303
319 320 320 320 319 319 319 319 319 320 320 321 321 320 320 319 319 320 319 317 318 317 317 318 323 327 326 325 323 322 325 324 321 320 320 319 316 311 311 311 310 304 303 305
321 320 320 320 320 320 321 321 320 320 321 321 321 320 320 320 320 319 319 317 318 319 319 320 322 324 323 322 321 320 321 320 319 319 316 312 309 310 310 305 302 302 300 299
321 321 322 321 318 327 320 319 320 321 321 321 320 320 320 318 318 316 314 317 319 319 319 319 320 320 319 319 317 317 314 313 316 313 310 308 308 307 300 299 299 299 300 299
321 322 323 328 322 320 319 315 319 320 320 320 320 319 317 317 315 316 311 312 315 315 316 316 316 316 316 315 314 313 315 315 313 310 309 307 301 299 299 299 301 299 297 296
318 319 324 320 330 330 320 319 318 318 322 320 319 319 318 316 320 320 312 314 314 313 312 313 314 313 314 313 311 313 312 310 309 308 302 299 299 298 300 299 297 295 293 292
319 320 324 324 330 322 319 316 316 321 322 319 317 317 317 319 317 313 311 311 310 310 310 310 309 309 309 307 306 304 305 306 302 300 299 298 299 298 298 295 292 291 293 292
322 324 324 323 330 328 315 314 320 321 318 317 316 317 317 314 309 308 308 308 308 307 307 306 306 305 304 303 304 302 300 299 299 298 298 299 299 298 293 291 291 291 291 290
322 322 324 322 323 323 315 319 317 318 319 316 316 316 317 310 308 307 307 306 306 305 304 304 303 302 301 300 301 299 298 297 298 298 299 298 293 291 291 291 290 288 287 286
319 317 321 321 321 320 319 317 314 314 315 315 315 315 313 310 307 306 305 304 304 303 303 302 301 299 298 297 296 296 297 298 299 297 292 291 291 290 289 288 287 286 285 284
320 319 320 321 321 317 317 317 317 315 314 315 313 313 312 310 307 305 303 303 302 301 300 299 298 297 296 297 298 299 299 297 293 291 291 290 288 288 286 285 284 284 283 283
318 320 322 323 321 320 320 320 318 317 317 316 314 311 310 308 306 304 303 302 300 299 298 297 296 297 297 298 299 297 293 292 291 289 288 288 286 285 284 283 283 283 282 281

GFSCGP_850_thetae_078.txt.gz
Theta_e
320 322 321 322 323 323 322 323 322 323 323 324 324 321 323 327 326 327 323 321 323 324 324 323 322 322 321 321 318 316 315 316 317 318 318 320 321 316 313 314 320 322 325 325
322 323 322 322 323 323 322 321 322 323 323 324 322 322 324 326 327 327 328 322 323 326 325 325 325 324 322 319 319 319 320 321 320 322 322 320 321 317 318 321 322 323 325 324
323 322 323 322 323 322 321 322 323 324 323 324 324 322 323 325 326 328 327 328 324 325 326 325 325 326 324 321 321 323 324 323 323 323 324 323 323 323 320 321 323 323 322 322
321 322 322 323 323 322 323 323 324 323 323 324 325 325 324 324 326 327 329 327 328 326 326 326 325 324 323 323 323 322 324 326 325 326 325 322 323 325 322 322 324 322 321 323
321 321 322 322 322 322 323 323 324 323 324 324 325 326 323 324 324 326 328 329 327 327 327 326 326 327 326 324 322 322 324 326 327 326 326 323 324 324 323 323 324 324 323 323
320 320 321 321 322 322 322 323 324 323 325 326 325 325 324 324 324 324 326 328 328 328 327 326 326 327 327 326 326 324 327 329 328 328 326 325 326 326 326 325 324 324 323 323
320 320 321 321 322 323 323 324 326 329 329 329 325 325 326 324 324 323 323 325 328 329 328 327 326 327 327 327 327 328 327 327 329 330 328 327 326 326 327 326 325 324 322 324
321 321 321 321 322 323 323 324 328 330 331 330 327 326 322 324 323 322 321 322 325 327 329 329 327 326 327 327 327 327 328 327 328 329 329 328 327 328 327 327 324 323 320 322
321 321 320 321 322 322 324 324 324 327 326 331 328 325 325 323 322 321 321 322 322 323 327 330 329 328 327 327 328 328 329 330 329 330 330 330 327 328 329 326 325 324 321 321
321 323 322 321 321 322 323 324 326 326 328 327 323 324 325 324 322 322 322 323 324 326 326 326 329 330 329 328 328 329 330 329 331 330 331 330 329 329 329 327 326 325 324 322
321 323 323 322 322 322 322 323 326 325 325 328 330 325 324 323 322 323 322 322 322 322 326 326 326 327 331 330 329 329 329 330 331 330 330 330 330 328 328 327 326 325 325 322
321 322 323 322 322 321 322 323 324 327 325 328 330 328 324 323 323 322 322 321 321 322 322 324 326 327 329 332 331 330 330 331 331 331 331 331 329 328 326 326 326 325 324 322
321 321 323 322 322 322 322 322 323 324 324 326 329 325 324 323 322 322 322 321 321 321 322 324 325 326 327 328 333 332 332 332 331 330 330 331 329 325 326 325 324 323 323 321
319 322 323 325 323 322 322 321 322 325 327 327 326 325 322 322 322 322 322 322 322 320 321 321 325 326 327 328 330 332 333 333 331 330 329 330 327 325 325 324 324 322 321 319
321 322 323 321 321 321 321 322 321 321 322 323 324 322 322 322 321 321 321 322 322 322 321 320 321 326 328 329 330 331 332 332 331 330 329 327 326 324 323 323 322 321 319 315
320 322 322 323 320 321 321 321 321 320 320 319 321 321 321 320 320 321 321 320 320 321 321 321 320 322 329 330 331 331 331 331 329 328 326 325 322 322 321 321 319 318 315 310
322 323 323 324 322 320 320 321 320 319 320 320 320 322 321 321 321 321 320 320 320 319 321 322 322 322 331 332 332 330 331 329 328 326 323 320 320 319 318 318 315 312 310 309
319 320 323 324 322 323 321 321 321 320 320 320 320 320 321 321 320 320 320 320 320 322 322 322 323 328 331 331 330 329 327 325 324 320 318 319 318 317 315 311 310 310 308 305
317 318 322 325 324 322 321 321 321 321 321 321 320 320 321 320 320 320 319 319 319 322 322 323 326 327 327 327 327 325 323 322 319 318 317 316 315 313 311 310 307 303 302 303
317 318 319 325 325 326 323 321 320 321 321 321 321 321 322 321 323 321 318 318 322 322 323 324 324 324 323 322 321 320 319 317 315 314 313 311 310 310 308 304 302 303 303 301
319 319 321 322 326 324 321 320 320 323 323 321 321 321 321 321 322 320 318 318 319 319 321 322 322 321 318 317 316 317 316 313 311 307 305 306 306 303 302 302 302 300 299 296
320 322 324 324 325 325 320 320 321 322 321 322 322 321 320 321 319 319 318 318 317 317 318 319 319 318 317 315 313 311 309 307 305 304 303 303 302 301 301 299 298 296 296 295
321 319 322 323 324 324 321 320 320 319 322 321 322 322 320 320 319 318 317 316 315 315 315 316 316 314 313 311 310 309 306 304 303 302 302 301 300 298 298 297 296 295 293 292
315 320 323 323 320 320 321 321 321 321 320 322 321 321 320 321 319 317 316 315 314 314 314 314 313 311 309 308 308 305 304 303 301 300 299 298 296 294 293 293 292 291 290 290
317 317 319 320 319 318 318 319 322 322 321 320 320 320 320 320 318 316 315 314 313 313 312 311 309 308 306 305 304 303 302 301 300 298 296 294 293 291 290 290 289 289 288 287
316 317 319 323 319 320 320 319 321 321 319 319 320 319 319 319 318 315 314 313 312 311 309 308 307 305 303 301 300 300 299 298 296 293 291 291 290 289 288 288 287 286 285 285

GFSCGP_850_thetae_081.txt.gz
Theta_e
320 317 318 317 318 320 321 322 322 322 323 322 321 320 325 324 326 325 326 325 323 324 322 322 322 321 321 320 320 320 319 318 316 314 314 315 315 315 315 315 316 316 318 321
319 320 319 320 319 320 322 320 319 320 322 321 320 319 321 325 324 322 321 321 323 323 324 321 321 321 321 320 319 318 317 317 317 316 314 316 315 316 317 316 316 317 320 322
320 320 321 321 321 321 321 320 320 320 321 320 322 320 321 323 324 321 321 323 323 321 322 322 322 322 321 319 317 315 315 315 314 313 315 316 318 318 316 314 315 316 321 322
317 320 321 321 322 321 321 320 321 323 321 320 322 321 321 323 326 324 321 323 325 324 322 324 323 321 319 317 316 316 318 319 319 319 319 319 320 322 319 319 317 321 322 322
317 318 320 321 321 321 321 322 323 323 321 321 322 323 321 321 324 327 325 322 324 325 323 324 324 321 319 318 319 321 323 324 323 322 321 324 323 322 322 322 319 321 322 322
316 318 318 319 320 320 321 322 322 323 321 322 322 325 321 320 324 324 326 326 323 326 326 324 322 324 323 319 319 320 323 324 325 325 324 325 324 322 322 323 321 321 323 322
318 318 318 319 320 320 320 320 322 325 325 324 327 327 323 322 321 322 327 326 326 325 326 326 325 323 324 324 323 321 321 323 324 326 324 326 324 322 323 324 324 323 321 323
318 318 317 319 320 320 319 320 323 327 326 330 328 328 323 322 322 322 323 327 326 326 326 326 326 325 326 326 325 324 322 323 325 326 327 325 324 323 324 325 326 325 324 324
317 317 319 318 320 320 322 322 321 326 328 329 327 324 323 322 320 319 320 321 326 327 326 326 326 326 326 326 326 325 325 324 326 328 329 329 328 325 325 326 326 325 324 324
319 320 319 319 319 320 320 322 324 323 329 329 327 325 324 321 321 320 319 322 325 326 327 326 326 326 326 326 326 325 325 325 323 325 328 329 329 329 326 326 326 325 325 325
317 318 319 320 320 321 321 321 324 324 323 322 322 322 321 321 321 321 319 321 322 323 324 326 327 327 326 326 326 326 326 326 326 326 326 329 330 330 329 328 326 326 325 324
317 320 319 318 319 320 320 320 321 324 325 324 322 321 321 320 318 319 319 321 321 321 325 324 323 326 328 327 327 327 327 327 327 328 329 329 330 330 328 328 327 327 325 324
317 319 320 320 319 320 320 320 321 321 321 323 322 323 321 320 320 320 321 321 320 321 322 324 323 322 328 329 328 327 327 328 328 330 330 330 330 330 329 328 326 326 325 325
316 318 318 320 320 321 321 320 320 320 320 321 321 323 321 320 319 318 320 321 321 321 321 322 324 324 323 327 330 329 329 329 329 329 330 330 331 331 328 326 325 325 325 324
318 320 318 320 319 319 321 321 320 320 321 324 323 323 321 318 318 319 321 321 321 321 322 321 325 325 325 326 330 331 331 331 331 331 330 330 330 329 327 325 325 325 322 321
318 319 319 319 319 320 320 320 319 320 320 318 318 319 317 319 319 319 320 321 321 321 321 320 321 325 327 327 328 330 331 331 330 329 329 328 328 326 326 325 324 323 322 320
319 318 321 320 319 320 318 319 319 320 319 318 317 317 317 318 319 319 320 319 320 319 320 320 320 320 327 328 329 330 331 330 330 329 328 326 325 324 324 322 321 321 319 316
318 319 320 320 318 323 319 318 319 319 319 318 318 318 317 318 319 319 320 320 321 321 321 322 322 323 329 330 330 330 330 329 328 326 325 324 322 321 320 319 318 317 314 310
317 317 315 320 321 321 320 319 319 319 318 319 319 318 318 319 319 318 319 319 319 321 321 322 322 325 331 330 330 329 328 327 326 324 323 321 319 319 319 317 316 313 310 309
317 317 317 316 322 322 320 319 319 319 318 318 319 318 318 318 316 315 318 318 319 321 322 322 324 326 328 328 328 327 326 323 322 321 319 318 317 315 313 311 310 309 305 303
315 313 314 317 318 319 320 319 319 319 316 318 320 320 319 318 318 319 318 318 318 320 322 323 324 325 325 324 323 321 320 320 319 317 316 315 313 311 310 309 305 302 303 303
317 317 316 315 317 320 319 319 319 317 319 319 320 322 320 319 319 318 318 317 317 319 321 323 323 323 320 318 318 318 317 316 315 314 312 311 308 307 304 302 303 302 302 301
319 316 318 318 317 319 321 321 320 320 321 321 321 322 320 319 319 318 317 317 317 318 320 321 320 319 317 315 314 314 311 310 308 307 305 303 302 302 302 302 301 299 298 297
316 316 316 317 316 316 319 319 320 319 319 321 321 321 320 320 319 318 317 317 317 316 317 317 317 315 313 312 310 309 307 306 304 303 302 302 301 300 299 298 297 296 295 294
312 316 317 318 319 318 316 317 318 318 318 321 320 320 319 320 320 318 317 316 315 315 315 315 313 311 309 309 307 305 304 303 302 301 299 298 297 296 295 294 294 293 291 290
314 314 316 316 317 317 317 317 317 317 318 318 320 319 319 319 320 318 316 314 314 314 312 311 309 307 304 304 303 302 302 301 300 298 296 294 292 291 290 290 289 289 287 286

GFSCGP_850_thetae_084.txt.gz
Theta_e
318 317 318 315 315 317 318 319 319 319 320 322 321 320 320 321 326 327 327 324 323 322 322 323 324 324 323 323 323 322 321 319 316 316 316 312 314 316 319 316 316 319 321 320
317 318 318 316 316 317 318 319 319 318 318 320 321 318 318 322 325 326 325 323 322 322 321 323 323 323 322 322 321 321 321 319 319 319 318 315 317 317 316 316 316 317 317 317
315 319 318 318 318 319 319 319 319 318 318 319 319 318 321 322 324 324 323 321 322 322 322 322 322 321 321 321 321 321 320 318 318 317 314 313 314 315 316 315 316 316 316 317
312 314 318 319 319 319 320 319 319 320 320 319 319 320 318 321 323 322 320 320 321 321 319 321 322 321 321 321 319 319 319 317 317 315 314 315 316 315 315 315 315 316 316 317
314 316 317 319 319 320 320 320 320 322 321 319 319 321 319 322 325 322 320 321 321 321 317 316 321 320 321 320 318 317 316 317 316 316 315 316 316 315 317 317 316 313 313 315
312 314 315 318 319 319 320 320 320 320 319 322 324 324 321 319 323 324 321 322 322 321 319 318 318 321 320 318 316 315 315 315 315 314 314 315 315 315 316 315 315 317 318 318
314 313 314 316 317 317 318 318 320 322 323 322 326 326 323 321 319 324 324 321 324 323 320 320 320 320 319 317 316 316 318 320 319 318 319 318 318 319 320 321 321 322 319 320
316 317 315 316 316 318 318 318 320 324 324 326 326 324 323 320 319 321 325 325 322 324 324 322 321 319 319 318 318 318 320 322 324 324 324 322 322 322 322 322 322 321 321 319
316 316 316 316 317 317 318 319 319 324 326 325 325 324 321 319 319 319 322 325 324 323 325 325 324 323 321 319 318 318 318 319 321 324 324 325 324 324 324 323 322 322 324 324
316 317 316 316 316 316 319 319 321 322 327 328 325 325 324 320 320 319 317 324 325 325 324 325 325 325 324 322 320 320 320 320 320 321 323 324 326 326 324 324 323 323 324 324
313 316 317 317 317 316 319 320 322 322 323 325 322 320 317 319 320 318 317 320 324 325 326 325 326 326 326 325 323 324 323 323 322 321 321 324 325 327 328 326 325 324 325 325
313 315 316 317 317 317 317 319 321 323 324 322 320 320 319 317 317 317 316 320 323 325 326 326 326 326 326 326 325 326 326 325 324 324 323 322 325 327 328 328 327 325 326 326
314 315 318 318 317 317 318 318 319 322 321 324 322 321 319 318 319 320 318 319 320 322 324 326 326 326 326 326 326 326 326 326 326 326 325 325 325 325 325 327 328 328 324 321
315 316 316 318 317 318 320 320 319 321 321 321 321 320 319 319 318 318 320 320 320 321 321 324 323 325 324 325 327 327 327 327 327 326 326 326 326 326 327 329 329 327 322 318
317 316 317 317 317 318 318 319 319 320 320 320 319 320 319 319 318 318 320 319 320 321 321 321 323 324 323 322 325 326 328 328 327 327 327 327 327 329 329 328 328 322 324 322
316 317 317 317 317 319 320 319 318 319 318 319 320 319 319 320 319 317 319 320 320 321 321 321 321 324 324 324 325 327 329 329 328 328 328 328 329 329 328 327 328 324 324 325
316 317 316 316 318 319 319 318 319 319 319 318 318 317 316 315 314 315 318 319 320 321 320 320 320 322 325 325 326 327 328 330 329 329 329 329 329 327 327 326 324 325 323 323
316 319 315 314 317 322 319 317 318 319 319 317 317 316 316 315 317 318 319 319 319 319 320 320 320 320 324 326 327 328 330 331 330 328 328 328 326 325 324 323 323 321 320 321
317 318 316 319 318 319 319 318 317 318 317 316 316 316 316 317 318 318 319 320 320 320 320 320 321 321 322 327 329 329 330 331 330 328 326 326 324 323 322 322 320 320 318 316
316 315 316 315 318 319 317 317 318 317 318 317 316 317 318 315 314 314 319 319 319 319 318 318 320 321 325 328 328 328 328 327 327 326 325 323 321 320 319 319 319 316 313 312
311 311 315 316 318 315 317 317 318 320 317 317 318 319 317 315 316 318 318 318 318 318 318 321 322 323 327 328 327 327 326 325 323 321 319 318 317 316 317 316 313 311 309 308
314 312 309 312 313 317 316 318 318 316 319 319 319 320 319 319 318 318 318 319 320 319 321 322 322 324 324 323 323 322 321 319 319 316 315 315 314 314 312 310 309 306 304 303
316 313 313 312 313 314 316 320 319 318 319 319 320 321 320 319 318 318 318 319 320 320 321 322 322 322 320 317 316 317 316 315 313 314 312 310 308 307 306 304 302 303 303 303
314 314 314 315 316 316 316 319 319 319 319 318 320 320 319 318 318 318 317 318 319 320 320 320 320 318 316 314 312 313 313 311 309 307 306 304 303 302 302 302 300 299 296 296
310 314 314 314 315 317 316 317 317 318 317 318 318 319 319 320 318 318 317 317 317 318 318 317 317 315 312 310 308 307 307 307 305 303 301 301 301 299 297 296 293 293 294 293
310 313 314 314 315 316 314 316 316 316 316 317 318 318 319 319 319 318 316 315 315 315 315 314 312 310 307 306 305 303 303 303 302 301 298 296 296 293 292 291 291 289 289 289

GFSCGP_850_thetae_087.txt.gz
Theta_e
315 314 317 316 314 316 317 317 317 317 317 320 319 318 318 319 321 325 326 324 323 322 323 324 323 324 323 325 325 324 325 325 322 318 317 315 319 315 314 316 318 316 315 315
315 317 317 315 314 315 316 317 317 316 317 317 317 318 316 319 322 324 325 325 323 321 321 322 320 322 323 323 323 324 323 324 320 318 315 315 321 319 315 316 316 315 315 317
313 315 316 317 316 317 316 317 317 317 317 316 318 317 317 320 323 325 325 325 321 320 321 321 323 322 321 322 321 322 322 321 320 317 314 313 316 316 319 316 315 315 317 317
311 313 314 318 318 317 318 317 318 318 318 320 317 319 316 318 323 324 323 324 321 320 319 320 322 322 323 322 321 320 320 320 319 316 315 316 314 314 315 317 316 316 316 318
312 312 313 314 318 317 319 318 318 318 319 318 319 319 317 322 323 322 320 322 322 320 319 316 321 321 321 321 320 320 320 320 319 319 318 318 316 315 318 317 316 316 316 317
312 313 312 313 315 317 318 318 318 318 318 320 322 321 319 317 322 323 321 320 321 320 320 317 318 321 321 321 320 318 318 318 318 318 317 315 315 315 316 315 315 315 315 315
312 313 313 315 315 315 316 317 318 319 320 321 322 325 322 319 318 321 321 321 320 320 320 319 317 320 321 320 319 317 317 317 317 317 316 314 315 316 316 315 316 315 315 316
308 311 314 312 313 315 314 316 319 322 321 321 324 325 322 319 320 319 321 322 321 321 321 320 317 317 320 318 316 315 315 315 315 316 316 315 315 316 317 317 316 316 315 313
314 314 314 313 314 314 315 317 317 319 324 324 322 322 320 319 318 317 321 322 321 322 323 323 321 318 317 319 317 317 316 316 316 316 315 314 313 313 314 313 313 314 316 318
312 315 315 315 314 314 316 317 319 319 325 327 323 323 322 320 319 317 318 322 322 322 323 323 323 322 320 317 318 317 317 318 318 318 317 318 319 318 319 319 320 321 320 321
314 311 314 316 314 315 316 317 319 319 319 321 322 320 317 320 318 318 315 321 323 323 323 324 324 325 324 320 318 318 317 317 318 320 321 322 323 324 323 322 322 323 324 324
315 312 312 313 314 315 315 317 318 321 322 320 318 319 316 316 315 316 318 319 319 324 324 324 325 325 325 324 323 320 318 317 317 317 318 319 320 323 323 325 325 326 325 325
313 316 313 315 314 314 315 316 317 319 318 321 321 320 317 317 316 319 318 319 320 321 324 324 324 325 325 325 325 324 324 322 320 319 319 319 320 320 321 322 323 325 326 326
311 317 318 315 315 314 317 317 317 320 319 319 321 320 319 318 317 317 319 320 319 319 323 324 324 325 325 325 325 325 325 325 325 324 324 324 323 323 323 322 322 323 327 326
312 316 317 315 314 315 318 318 318 318 318 320 319 320 319 317 317 317 321 321 320 319 319 321 324 324 324 325 325 325 325 325 326 326 326 326 325 325 324 324 325 326 326 326
312 316 316 316 315 315 316 316 319 319 318 317 317 318 316 317 318 317 319 319 318 320 320 319 321 323 323 323 323 323 323 324 325 326 326 326 326 326 326 326 326 326 327 327
311 314 316 317 316 317 318 317 317 318 318 317 317 317 317 316 315 316 318 318 319 318 320 320 320 321 321 323 323 323 324 325 326 326 326 326 326 326 327 327 327 324 325 324
312 313 312 316 315 320 317 316 317 318 318 317 316 316 315 315 318 319 318 318 319 319 320 321 321 320 320 322 324 325 325 326 327 327 327 327 327 328 326 326 325 325 323 322
312 314 314 318 317 316 318 316 317 318 318 317 317 316 314 316 316 317 318 318 319 319 320 320 320 320 320 321 323 325 327 327 328 328 328 327 325 325 324 323 323 322 323 321
313 313 315 315 318 317 315 316 317 318 319 316 316 318 314 314 315 314 318 319 319 319 320 320 320 319 321 322 324 326 328 328 328 328 327 325 324 323 321 322 320 320 319 316
314 313 316 316 317 314 314 314 316 321 318 316 317 316 316 314 316 317 318 319 319 319 318 319 319 321 322 325 326 327 327 326 325 324 323 321 320 318 317 316 316 316 314 311
314 314 314 313 312 314 313 318 318 315 318 319 318 319 317 318 319 318 318 318 318 318 320 321 321 323 325 325 325 325 324 323 321 319 317 315 314 313 313 313 313 311 310 309
312 312 314 313 311 310 313 319 317 318 318 318 317 320 320 318 317 318 319 319 320 321 321 322 322 322 321 320 320 319 318 316 316 314 313 312 311 310 310 309 308 307 304 302
310 312 314 314 313 312 313 314 317 318 318 318 318 319 319 318 317 319 320 321 320 321 321 321 321 319 317 314 313 313 312 311 311 311 309 308 307 306 305 304 302 302 301 299
309 313 314 312 312 312 313 313 315 316 318 317 318 319 319 319 318 318 318 319 320 320 320 319 318 316 314 311 311 310 309 309 309 307 306 305 304 303 303 301 299 297 294 293
308 310 311 311 312 312 313 314 315 316 316 317 318 317 319 319 317 317 317 318 318 318 317 316 314 312 309 309 308 307 306 306 306 304 301 300 299 298 296 295 294 294 294 294

GFSCGP_850_thetae_090.txt.gz
Theta_e
313 312 314 315 314 314 315 315 316 314 315 317 315 314 314 316 318 321 326 326 323 322 321 322 324 324 325 325 325 325 326 325 325 323 318 317 322 321 323 322 321 315 320 321
314 314 313 314 313 315 315 316 316 314 314 315 315 315 315 315 318 319 322 325 324 322 322 321 323 324 324 324 324 324 322 323 324 319 317 317 320 319 320 317 314 314 315 317
313 314 314 315 314 315 315 316 315 315 314 315 315 315 316 316 320 322 323 324 324 322 321 321 321 322 322 323 323 324 323 324 323 320 316 316 317 319 320 317 315 315 316 316
311 312 313 315 317 316 317 315 316 316 317 317 315 317 315 316 319 322 323 324 324 322 320 319 323 323 322 322 321 322 322 323 323 320 318 316 316 316 316 314 317 318 316 316
312 312 312 313 316 315 317 316 316 317 316 316 317 317 316 320 320 319 320 323 324 323 321 319 319 322 322 322 322 321 321 321 321 321 319 316 318 318 317 315 315 316 317 315
311 312 311 312 313 315 317 317 317 317 316 318 317 317 317 316 319 319 319 321 323 324 322 320 317 321 322 321 321 320 320 320 320 320 319 317 314 314 315 316 316 316 314 315
307 309 312 313 313 314 315 316 318 318 319 321 317 323 320 317 316 317 318 321 322 323 323 321 319 319 321 321 320 320 320 320 320 319 318 316 316 316 316 316 316 315 316 316
305 305 309 312 314 315 315 316 317 321 319 319 322 325 321 318 318 319 320 319 321 321 323 322 321 317 320 321 319 317 317 319 319 319 319 319 318 317 317 317 317 316 316 316
312 307 311 312 313 313 313 315 315 316 320 322 320 320 318 318 318 316 316 319 321 321 322 323 322 320 316 319 318 316 315 315 316 317 318 317 316 316 316 316 315 315 316 315
313 313 312 313 312 312 313 313 317 317 322 324 320 322 319 318 318 316 316 319 321 321 321 322 322 322 320 316 319 318 316 315 314 314 314 315 316 316 315 315 316 316 316 316
313 313 312 312 313 313 313 315 317 317 317 319 320 319 316 318 317 317 314 317 321 321 322 323 324 323 322 320 317 318 317 316 315 315 316 315 315 314 313 313 314 314 315 314
312 314 313 313 312 312 313 314 315 317 318 317 316 318 315 315 315 315 315 318 319 322 322 322 323 323 323 323 321 318 318 317 317 317 317 318 318 318 317 317 318 317 318 319
311 314 316 314 313 312 312 312 315 317 317 318 319 318 316 314 315 317 316 318 319 320 320 322 323 323 323 323 324 324 322 320 318 317 317 317 317 318 320 321 322 323 323 323
310 312 313 317 317 317 316 313 313 317 317 318 319 318 318 317 317 316 318 319 320 320 319 321 322 323 323 324 324 324 324 325 323 322 320 320 321 320 318 318 318 319 319 320
311 311 311 313 314 313 316 315 314 315 316 318 317 318 317 316 316 317 319 320 319 319 320 320 322 322 322 323 323 324 323 323 324 324 324 324 320 319 319 319 320 321 321 322
311 308 313 312 313 316 316 315 314 316 315 316 316 316 315 317 317 317 318 319 320 319 321 321 320 322 322 323 323 323 323 323 324 324 324 324 323 322 322 322 323 323 323 323
308 311 314 315 314 314 315 313 314 313 316 316 316 315 315 315 314 315 318 320 320 320 321 320 320 320 320 321 323 324 324 324 324 324 324 324 324 324 324 324 324 324 325 324
306 311 312 315 314 320 315 313 314 315 314 314 315 315 314 314 317 317 318 319 320 320 319 319 319 320 320 320 321 321 322 323 323 323 324 324 324 324 324 324 323 323 324 323
304 309 312 315 318 315 316 315 316 316 316 315 315 314 315 316 314 314 316 318 319 318 318 318 319 319 319 319 320 322 323 325 325 324 324 324 323 323 321 321 322 323 323 321
307 309 311 314 316 315 315 314 314 316 317 315 314 314 314 314 315 313 316 316 316 317 317 318 320 320 320 319 321 323 325 325 325 323 323 321 320 319 320 320 320 318 319 319
311 311 312 313 315 314 314 315 314 318 316 315 317 315 315 314 317 318 316 318 318 319 319 320 320 319 320 321 322 324 324 323 322 322 321 321 320 320 318 317 316 316 315 314
308 313 314 314 316 316 312 315 318 314 316 317 317 317 317 316 317 315 318 319 320 320 320 320 320 321 323 324 325 324 323 320 320 319 318 317 316 315 313 312 312 311 311 310
309 310 312 313 313 312 311 312 312 315 316 316 317 317 319 319 320 319 319 319 320 321 321 322 322 322 321 320 320 319 317 317 316 315 314 312 311 310 310 310 310 309 307 305
306 309 310 311 311 311 311 312 313 314 316 317 318 317 318 317 316 318 320 320 320 320 321 320 320 319 316 314 313 312 311 311 311 311 310 309 309 308 306 305 303 302 300 298
305 308 309 311 312 312 312 311 313 314 315 315 317 317 318 317 315 319 319 320 319 318 319 318 315 315 311 310 309 308 309 309 309 308 306 304 302 301 300 299 297 296 294 294
306 306 307 308 310 310 310 312 313 314 314 315 315 316 318 318 317 318 314 314 317 313 315 316 309 309 308 308 307 306 305 305 305 303 300 299 298 297 296 295 294 293 293 292

GFSCGP_850_thetae_093.txt.gz
Theta_e
312 314 317 317 317 316 316 317 318 317 317 317 318 316 318 318 317 320 325 328 325 324 323 321 322 324 325 325 325 326 326 326 325 326 325 324 324 322 315 318 317 318 319 321
313 312 314 316 315 317 317 318 318 317 316 316 317 318 319 318 319 319 321 325 326 324 322 321 322 323 324 324 324 325 324 326 326 325 325 324 323 316 314 317 317 319 321 318
312 314 314 314 315 316 317 318 319 318 316 316 317 319 320 318 318 320 321 323 325 324 323 321 320 324 324 323 322 324 322 324 325 324 324 322 316 314 316 322 319 319 317 316
313 313 313 314 315 316 317 316 317 317 318 318 317 320 320 320 320 319 322 323 323 323 323 321 320 321 323 322 323 323 321 322 324 323 321 318 316 316 318 323 322 321 317 316
314 312 313 314 316 316 317 317 317 318 318 318 319 321 320 318 321 321 321 323 323 323 324 321 319 320 320 321 321 322 322 321 323 322 319 316 318 319 320 320 318 315 315 315
310 311 312 313 313 316 317 317 318 318 319 322 320 321 321 320 321 321 321 320 323 323 324 322 320 319 321 321 321 321 321 322 322 321 319 317 316 319 319 318 316 315 314 314
310 311 311 312 313 315 317 318 318 321 322 322 319 320 321 320 320 320 321 320 321 322 323 323 320 319 320 321 320 320 321 320 321 321 320 318 318 317 317 318 316 314 315 315
306 306 311 311 315 315 316 317 318 319 322 322 322 324 323 322 321 319 319 319 319 321 322 324 322 319 317 320 320 319 320 320 321 321 320 319 318 317 315 315 315 313 314 316
313 309 311 310 313 315 316 317 316 317 320 322 321 322 321 321 321 319 318 317 319 319 321 323 323 321 316 319 319 318 318 319 320 320 320 320 319 317 316 316 315 315 316 316
312 317 312 312 311 313 314 316 318 318 319 318 319 322 321 320 321 320 320 319 320 319 320 321 323 322 320 316 319 318 317 316 317 319 319 319 319 318 317 316 317 318 316 316
312 315 316 314 313 314 314 315 316 318 319 319 319 321 321 322 322 321 321 319 317 320 321 321 322 323 321 320 317 318 318 316 315 315 316 318 318 318 317 317 317 317 316 316
313 314 316 315 314 313 313 315 315 317 317 320 319 320 317 320 320 319 319 318 317 319 321 321 321 322 321 321 321 318 318 318 316 315 314 314 314 314 315 316 316 316 316 316
305 312 313 316 314 315 315 315 316 316 316 317 320 320 317 316 317 318 318 319 318 319 320 321 322 322 322 322 322 322 320 318 318 317 316 316 315 316 315 315 314 314 314 314
306 309 308 311 315 312 314 315 313 316 319 318 318 317 319 319 319 320 319 320 320 318 319 320 321 322 322 322 323 323 323 322 320 318 318 317 317 317 317 317 318 319 319 320
309 311 311 310 310 309 312 312 312 315 317 317 317 318 318 319 320 321 320 319 319 319 318 319 320 322 322 322 322 322 323 323 323 322 321 320 318 317 317 317 317 317 317 318
305 313 311 311 310 311 311 312 314 316 317 317 316 317 317 318 318 317 318 318 319 321 320 320 320 320 321 321 321 322 322 323 323 323 323 323 322 321 319 318 318 318 318 318
304 307 312 313 312 313 315 314 316 317 317 317 318 318 317 317 317 318 318 318 317 319 320 320 321 321 320 320 321 322 323 323 323 323 323 323 323 323 323 322 322 322 323 323
304 307 307 310 312 315 313 313 316 316 315 315 317 317 317 318 317 318 318 318 318 317 319 320 320 319 318 319 319 319 321 322 323 323 323 323 323 324 324 323 323 323 323 323
304 305 307 310 312 314 309 316 315 316 317 316 315 316 317 317 315 315 317 318 316 316 317 318 318 317 318 318 319 320 320 321 322 323 323 323 323 322 323 323 323 323 322 323
305 305 307 310 312 312 313 315 315 315 319 318 317 317 316 316 319 318 315 316 316 314 315 315 317 317 318 319 321 322 323 323 322 322 322 322 322 321 321 321 321 321 319 318
305 305 306 308 311 313 313 315 316 317 320 315 317 317 316 317 317 316 317 317 318 316 317 319 320 320 320 321 322 321 322 322 321 321 320 320 319 319 318 317 316 315 315 314
310 309 309 309 311 311 313 315 316 314 313 314 316 317 317 315 316 317 318 319 319 317 317 318 319 319 320 320 320 320 320 318 319 318 317 316 314 313 312 311 311 311 310 309
306 309 313 312 310 313 312 311 311 313 313 314 316 317 317 315 316 319 319 318 317 316 313 315 317 317 317 317 319 318 315 315 315 314 312 311 310 309 309 308 307 307 304 303
306 307 310 310 310 311 311 310 311 312 312 315 316 317 318 316 316 317 318 317 316 315 315 316 316 316 314 314 312 312 311 311 310 310 309 307 307 305 304 303 301 300 298 297
305 308 309 309 308 310 310 310 309 311 313 314 315 317 318 318 317 313 311 315 315 313 313 314 313 312 310 310 309 308 308 308 308 306 303 302 302 301 299 298 295 295 293 293
306 307 308 308 307 308 309 309 309 313 313 314 315 316 316 318 318 316 313 307 308 311 310 309 307 308 308 309 306 304 304 305 305 303 300 298 298 296 295 294 292 291 290 289

GFSCGP_850_thetae_096.txt.gz
Theta_e
307 314 317 317 318 319 319 319 319 319 320 320 320 319 320 322 322 323 323 327 329 329 328 326 325 324 324 325 326 326 326 326 326 326 324 325 326 326 327 326 324 324 321 318
313 312 313 316 317 318 318 318 318 319 319 319 320 319 320 322 323 323 323 325 327 328 328 326 324 322 324 325 325 326 326 326 326 326 324 325 325 326 326 325 324 322 324 317
315 315 314 313 316 317 317 317 318 318 319 319 320 320 319 320 322 323 324 324 325 327 328 326 324 320 324 324 323 325 325 325 325 326 324 324 325 325 324 323 321 320 323 318
314 314 314 315 314 315 316 316 317 317 318 320 319 319 318 321 322 323 322 325 326 327 327 327 325 322 323 324 322 324 324 322 324 325 325 324 324 323 319 318 320 319 322 322
315 315 315 315 316 316 316 316 316 318 319 320 320 320 319 321 323 323 323 322 326 327 327 327 326 323 321 324 323 323 323 322 324 324 325 325 323 316 315 318 318 316 318 318
310 311 312 315 315 316 317 318 319 320 321 323 321 320 320 321 324 322 323 324 326 327 327 327 326 324 324 322 322 323 323 322 323 323 323 323 319 315 314 317 319 318 318 320
307 309 311 313 314 314 316 319 322 324 323 323 320 321 320 323 323 323 323 323 325 327 327 327 326 324 324 323 321 321 322 322 323 323 322 321 318 315 315 317 323 322 320 319
310 309 310 313 313 315 316 319 320 320 323 323 321 323 323 323 323 322 323 324 325 326 327 327 326 325 324 323 321 320 321 322 323 323 323 320 320 318 318 320 320 320 318 317
314 313 313 311 312 313 316 318 317 318 319 321 323 323 323 323 323 323 323 322 323 325 327 327 327 326 324 323 322 320 320 320 321 322 322 321 319 317 319 321 319 317 317 317
310 315 314 313 313 313 314 316 318 319 320 320 319 321 323 321 322 323 323 323 323 324 325 327 327 326 325 322 322 320 321 321 320 320 320 321 320 319 319 319 320 320 319 318
311 312 315 315 315 313 312 315 316 317 319 321 321 321 321 321 321 322 323 323 323 324 325 326 327 326 325 324 321 320 319 320 320 321 320 320 320 319 319 319 318 317 317 318
308 311 313 315 316 316 317 316 315 317 317 319 320 321 321 322 322 323 323 323 322 324 325 325 326 326 326 325 323 318 319 318 318 319 320 320 320 320 320 319 319 318 318 318
306 311 313 315 316 316 317 317 317 318 318 319 322 321 320 320 320 321 322 322 323 321 324 325 325 326 326 325 325 323 320 319 320 320 320 320 319 319 319 319 318 319 318 319
305 308 308 311 313 312 314 315 315 316 320 319 319 318 318 318 319 320 320 321 322 322 323 324 325 325 326 326 325 325 324 323 322 322 321 320 318 317 318 316 316 317 317 316
307 308 308 309 308 308 309 310 311 315 316 318 319 320 318 318 318 319 320 321 322 322 320 322 324 325 326 325 325 325 325 324 323 323 322 321 319 318 318 317 316 316 317 316
307 309 310 311 311 310 310 310 311 312 314 316 317 318 318 318 317 318 319 319 320 321 322 322 321 324 326 325 325 325 323 324 324 323 323 322 321 320 320 319 319 317 319 319
307 308 310 311 312 313 314 313 312 312 314 317 320 319 319 318 318 319 320 321 321 321 321 322 321 320 324 325 325 326 325 324 324 324 323 323 322 322 321 321 321 321 320 321
306 307 307 310 311 315 312 314 314 314 317 318 319 319 318 319 318 319 319 320 321 320 320 320 321 319 318 323 324 326 325 325 324 324 323 323 322 322 322 321 321 321 321 322
307 307 308 308 308 309 310 312 316 318 317 318 321 319 318 317 318 318 319 318 318 317 317 317 318 318 318 317 319 323 324 324 324 323 323 322 322 321 322 322 321 321 321 321
307 307 309 308 308 308 308 315 315 315 316 320 319 320 321 321 321 319 319 316 317 317 317 319 317 316 317 318 319 319 320 321 321 321 321 321 322 322 321 320 320 320 319 318
309 309 309 309 309 307 309 312 315 316 317 315 316 316 318 322 321 321 318 316 316 317 316 316 316 317 317 318 320 320 320 321 321 322 322 321 320 319 318 317 315 314 314 313
310 310 309 308 310 310 310 314 315 313 313 314 313 314 316 319 319 320 315 316 315 315 316 317 318 318 319 319 320 320 319 318 319 319 319 318 316 315 314 313 311 310 309 308
307 307 309 310 309 308 309 311 310 311 312 311 313 313 317 319 320 314 312 312 312 315 316 316 317 315 316 318 319 318 315 316 316 316 314 312 311 310 309 308 307 306 304 302
307 307 309 310 308 311 309 308 309 310 311 314 315 315 318 318 316 313 310 311 315 314 315 315 316 313 312 313 313 312 311 312 311 310 308 307 307 305 304 303 302 300 298 296
307 307 307 308 308 307 308 309 308 309 312 312 314 316 319 317 315 311 306 304 310 316 310 313 312 311 310 307 307 307 307 308 308 306 304 302 301 301 300 298 295 295 293 293
307 308 308 309 308 308 307 306 307 308 311 310 313 318 315 311 307 306 305 302 300 312 311 310 308 306 305 305 305 304 304 306 305 302 299 297 296 295 295 293 291 290 290 289

GFSCGP_850_thetae_102.txt.gz
Theta_e
315 312 311 312 313 314 315 317 319 321 321 322 324 324 323 323 323 323 323 324 324 324 328 333 332 331 331 327 325 326 327 327 327 326 324 326 326 328 329 329 327 325 324 326
317 316 315 314 315 314 314 317 318 319 320 321 323 323 323 323 323 323 322 322 323 324 330 332 331 331 330 326 326 327 327 326 326 324 326 324 324 325 326 330 328 327 325 325
315 315 316 315 316 316 315 315 318 319 319 321 322 323 323 323 323 323 322 322 322 323 330 332 331 331 330 325 328 326 327 326 326 325 325 325 326 326 326 326 329 327 325 324
313 315 315 315 317 316 316 315 316 316 318 321 321 323 323 323 323 324 324 323 321 323 324 331 331 331 330 326 328 327 327 325 326 326 325 325 327 327 327 326 326 327 326 325
311 312 312 314 314 317 317 316 315 316 318 319 319 321 321 322 323 323 324 322 323 324 324 332 331 330 329 327 329 326 327 327 326 326 325 325 326 327 328 327 327 328 326 324
312 312 312 314 316 316 317 316 316 317 317 320 319 320 322 323 323 323 324 323 324 323 325 330 331 330 329 328 328 325 326 327 325 325 325 325 325 326 326 326 327 327 327 325
314 313 313 312 314 315 316 317 318 318 320 320 319 321 322 323 323 324 324 324 324 325 327 329 330 330 328 329 326 327 324 327 324 326 325 325 325 325 324 324 324 323 323 322
313 312 314 314 311 312 314 317 319 321 321 323 321 327 324 324 323 323 324 324 325 325 328 329 330 330 328 328 324 327 325 325 324 325 325 324 324 324 324 324 323 323 321 319
314 313 316 313 312 312 313 316 317 319 320 321 322 323 325 325 323 323 323 324 324 326 328 329 330 330 328 328 325 325 326 325 326 324 325 325 325 324 325 324 324 323 322 321
312 315 314 315 312 311 312 313 316 318 320 322 320 322 327 326 325 324 324 325 324 325 328 329 330 330 329 329 328 324 325 323 324 324 324 323 322 322 323 322 322 321 321 321
307 310 311 313 315 314 312 313 314 316 318 321 323 321 323 324 325 324 324 324 324 323 327 329 330 330 329 329 328 327 325 325 323 324 324 324 323 322 320 319 321 320 319 319
304 305 311 311 314 315 317 315 314 316 317 319 320 320 321 322 323 323 323 323 324 324 325 328 329 330 330 328 328 327 326 326 325 323 327 325 322 322 321 321 318 316 318 321
308 309 309 309 309 311 314 316 317 316 316 318 320 320 319 320 321 322 321 320 321 324 324 327 329 330 330 329 328 328 326 326 325 325 324 324 322 323 322 322 322 322 322 321
306 308 310 311 309 311 313 313 314 318 320 318 317 316 317 321 321 320 320 320 320 321 324 327 328 330 330 330 329 328 327 326 326 325 324 324 324 323 322 321 321 322 322 321
306 306 306 307 307 307 309 310 311 312 315 320 319 319 319 320 320 321 320 320 320 320 321 323 328 329 330 330 329 328 328 326 325 325 325 325 324 323 323 323 322 322 321 321
306 305 305 306 307 308 307 308 309 310 311 312 314 315 315 316 317 317 317 318 318 319 319 319 325 327 329 330 330 329 328 327 325 325 324 325 325 325 324 324 324 323 323 322
308 307 306 307 308 308 308 308 308 309 311 312 312 313 313 315 316 317 318 318 319 318 318 318 322 324 328 329 330 330 329 328 327 325 325 324 324 325 325 324 324 323 322 322
307 309 309 309 309 311 310 309 311 312 311 311 312 311 311 312 314 320 321 318 319 318 318 319 322 323 323 328 329 329 329 329 328 327 326 326 325 325 325 324 324 322 322 322
307 307 309 309 308 309 308 310 313 318 317 318 318 319 319 319 320 321 321 323 323 323 321 321 321 322 323 326 328 328 329 329 328 328 327 327 326 326 325 324 323 322 322 322
306 308 308 309 309 308 308 311 311 312 315 317 316 316 316 317 322 321 319 322 321 322 323 323 323 320 322 323 328 328 329 329 329 328 327 327 326 326 325 323 322 321 321 321
308 309 309 310 311 310 309 309 310 311 315 314 314 314 315 318 318 318 317 319 318 318 319 321 323 323 322 324 327 328 328 329 328 326 326 326 325 325 322 321 320 318 317 315
310 311 310 310 310 310 311 311 313 314 311 312 313 313 314 314 316 316 318 314 314 315 315 316 317 320 321 323 324 326 324 320 322 322 323 322 323 323 321 318 313 310 307 306
311 309 311 310 310 311 311 312 312 311 311 311 311 312 312 313 316 315 317 315 311 310 311 312 313 312 315 316 318 320 318 319 318 319 319 318 315 311 310 312 305 303 302 300
309 309 310 311 311 311 310 309 309 309 308 308 309 310 310 314 316 315 313 310 308 306 307 307 308 310 310 310 311 315 312 312 314 316 311 307 305 301 300 303 299 298 297 296
308 308 309 310 311 310 310 310 309 309 307 308 309 311 310 315 315 313 308 304 302 302 303 303 303 303 302 303 303 304 305 306 308 306 303 302 302 301 298 298 297 296 294 294
306 307 309 311 310 309 309 309 308 308 308 311 311 312 311 309 307 307 305 301 299 299 299 299 299 299 298 299 299 299 300 304 305 302 301 300 296 297 297 295 295 292 291 290

GFSCGP_850_thetae_105.txt.gz
Theta_e
315 310 307 306 305 307 308 310 311 312 315 318 318 318 319 319 320 318 320 322 324 324 326 331 331 331 331 330 330 324 327 327 328 328 328 328 329 330 328 328 326 324 324 323
314 313 311 309 308 308 308 310 311 312 315 316 316 318 318 318 320 320 320 321 321 321 328 332 332 331 330 330 326 323 326 328 327 326 325 325 326 328 328 328 326 325 325 324
313 315 315 314 313 313 312 313 311 311 313 315 316 318 319 319 319 321 322 322 322 322 331 332 332 331 331 329 322 324 327 327 326 325 323 325 324 325 327 329 328 326 325 325
309 312 313 313 313 313 313 314 314 314 313 313 316 319 318 317 318 319 320 321 321 322 331 332 331 331 330 326 321 325 329 326 325 326 326 325 324 325 325 326 328 327 325 325
309 309 309 309 310 311 313 315 315 314 313 313 314 316 317 317 318 319 319 320 321 323 329 332 331 330 329 327 319 323 328 329 325 325 324 324 324 325 326 325 327 327 326 325
310 311 310 309 311 311 314 315 315 314 313 314 315 316 316 316 317 319 320 321 321 322 329 331 331 330 330 327 320 322 328 326 325 326 325 325 325 326 327 327 326 326 325 324
311 311 310 311 310 310 314 313 315 316 315 316 315 317 316 318 318 319 320 321 323 322 329 331 331 330 329 327 320 322 327 326 326 325 325 325 325 327 327 327 326 325 324 324
312 312 311 312 310 309 311 311 315 318 317 316 318 322 320 319 320 322 321 322 325 329 330 331 330 330 329 327 322 320 325 325 325 324 327 324 324 325 326 325 326 325 326 324
313 313 312 314 313 309 309 312 312 316 316 318 318 318 318 324 323 323 321 322 325 329 331 331 330 330 329 328 322 321 323 324 324 323 326 324 325 324 325 324 325 326 326 326
309 311 312 312 313 312 309 310 311 316 320 320 317 317 320 323 322 323 322 322 323 328 329 330 330 330 330 328 323 321 321 323 322 323 325 324 324 323 323 324 323 323 323 324
303 307 307 310 312 315 315 309 309 311 318 318 319 318 322 324 323 323 322 323 321 324 328 330 330 330 330 329 326 320 322 322 322 322 324 325 325 324 324 324 324 323 323 321
303 304 304 305 307 312 314 315 315 309 312 316 316 316 317 320 320 321 320 322 322 323 326 330 330 330 329 329 328 323 321 322 322 321 323 324 324 323 322 323 323 322 322 322
304 307 310 308 306 307 312 313 315 314 312 313 315 318 317 317 321 321 319 319 319 320 322 328 330 330 329 329 328 327 323 322 323 323 323 322 321 322 321 321 321 321 321 320
307 306 306 308 309 307 307 307 310 311 319 319 317 317 316 318 319 318 319 318 319 318 320 322 330 330 329 329 329 328 326 324 324 323 323 323 324 322 321 321 320 319 318 318
305 305 305 305 305 305 305 306 307 308 310 317 316 315 317 319 319 319 318 318 316 317 317 318 321 328 330 329 329 328 327 325 326 325 323 323 324 322 322 322 322 319 317 320
306 305 305 304 304 303 304 305 306 307 308 309 310 311 313 312 314 314 317 316 317 317 317 318 319 320 327 330 329 329 328 325 326 325 325 323 322 322 322 322 322 322 323 322
305 306 305 306 304 304 305 306 306 306 307 308 308 309 311 310 310 318 322 322 323 323 322 321 318 318 318 329 330 329 328 328 325 326 325 325 324 323 323 322 322 321 321 321
305 306 305 305 306 307 306 307 308 307 308 311 317 317 316 316 318 320 322 321 320 321 323 323 324 322 323 325 329 329 329 328 327 325 325 325 325 325 324 324 323 322 322 322
303 304 306 308 308 308 307 309 313 314 315 316 316 315 315 314 317 318 317 320 320 320 319 321 323 323 324 329 330 329 329 328 328 326 325 324 325 325 325 324 323 324 323 322
304 303 305 306 308 305 308 310 309 309 314 314 314 314 314 314 316 317 317 318 318 318 318 318 321 323 324 324 321 325 329 329 327 326 325 325 325 325 325 324 323 322 321 320
305 304 305 306 305 308 308 309 310 310 312 313 312 313 313 312 312 314 316 316 316 315 316 317 317 321 322 323 327 329 330 329 328 327 327 326 326 325 324 323 321 321 319 317
307 304 304 305 303 306 309 310 311 311 310 311 311 311 312 311 311 316 315 314 314 313 314 314 314 315 319 320 321 326 327 326 324 323 324 323 323 322 321 321 318 317 315 311
309 307 307 304 305 309 310 309 311 310 309 309 309 308 310 312 316 315 314 312 309 309 311 311 311 310 311 313 317 320 317 317 319 318 318 317 315 314 313 313 307 303 303 302
306 307 308 309 310 310 309 310 309 308 307 307 308 309 311 311 314 314 312 311 309 308 305 306 306 308 309 309 312 315 313 313 314 315 312 307 307 304 302 301 299 298 296 296
305 306 307 309 309 310 309 309 308 309 309 308 311 311 309 310 311 311 309 306 304 303 302 301 302 303 302 303 305 306 307 308 309 309 303 302 300 300 298 297 295 297 295 294
306 308 308 310 308 308 309 307 308 308 309 310 311 311 309 308 308 307 305 301 300 299 299 298 297 298 297 298 298 297 298 301 302 301 299 297 296 296 294 294 289 289 289 290

GFSCGP_850_thetae_108.txt.gz
Theta_e
313 306 305 305 304 309 307 306 305 306 308 311 312 314 313 314 316 316 318 319 319 321 322 324 328 331 332 332 332 331 328 323 326 328 328 329 330 327 330 328 328 327 327 327
312 313 310 307 305 305 305 305 305 306 308 309 311 312 312 314 315 317 318 318 318 319 322 326 331 332 332 331 331 330 322 324 326 327 328 329 329 329 327 327 327 327 326 327
312 313 314 311 310 307 306 305 305 307 310 310 312 313 313 315 317 318 318 318 318 318 324 329 332 332 331 331 330 328 321 323 326 327 327 327 328 329 328 327 328 328 326 326
311 312 313 313 313 312 312 311 311 312 312 313 311 313 312 313 315 316 316 318 318 318 324 328 331 331 331 331 330 322 323 324 326 326 326 325 325 327 330 328 328 329 328 325
309 308 309 311 312 311 312 311 312 313 312 311 312 311 313 314 314 315 315 316 317 318 322 328 330 331 331 330 329 321 324 325 326 326 324 323 324 324 326 328 329 327 327 326
308 310 309 308 309 308 310 312 314 313 311 313 313 312 314 312 314 315 316 317 318 318 319 326 330 331 331 330 327 321 324 324 324 324 326 326 326 323 326 325 325 327 327 327
310 309 308 309 309 309 309 311 313 314 314 314 313 314 314 313 314 316 319 319 321 322 320 329 330 331 331 329 326 321 323 323 326 325 325 325 324 324 325 326 326 325 326 327
311 312 310 311 308 309 307 309 311 316 315 314 313 315 317 316 317 321 322 322 322 323 321 328 329 331 330 329 325 321 321 322 324 326 324 324 325 324 327 326 327 326 326 326
311 312 310 311 312 310 309 310 310 312 314 315 315 315 314 314 321 322 322 323 321 328 326 329 330 331 330 329 324 320 320 321 322 325 324 325 323 324 325 325 326 326 325 326
306 309 307 308 310 311 311 309 310 312 315 314 316 315 316 318 321 321 322 322 321 323 329 329 330 330 330 328 325 321 320 319 321 325 323 324 324 323 324 325 325 326 326 325
302 304 306 307 309 308 312 314 314 309 314 314 317 315 320 321 320 320 321 321 320 321 320 329 328 330 329 329 326 321 320 321 320 322 325 325 324 324 324 324 324 324 325 324
303 302 302 304 304 306 312 312 313 315 313 314 315 314 314 320 321 320 318 317 319 320 319 325 328 327 329 328 327 322 320 320 319 320 323 326 324 324 323 323 323 323 323 324
303 302 307 303 305 308 309 309 307 313 313 315 314 312 313 316 320 318 318 319 319 317 318 321 329 327 327 329 328 326 319 318 318 320 322 324 324 324 323 323 323 323 323 323
305 304 304 304 307 304 303 304 305 311 311 313 311 315 312 311 318 319 316 316 317 316 317 319 323 328 327 326 328 327 321 318 319 320 321 323 324 324 324 322 323 323 322 322
304 303 304 304 304 303 303 303 303 304 307 311 310 310 310 311 316 318 317 316 316 317 319 320 325 328 328 328 327 327 326 319 319 320 321 321 323 323 322 321 321 322 321 320
304 304 304 304 304 304 304 303 303 303 304 305 307 308 309 313 313 316 315 317 321 322 322 322 321 326 328 329 328 327 326 325 320 322 321 322 321 321 322 321 320 320 320 320
304 304 304 304 304 305 305 304 304 304 304 305 305 308 315 316 317 319 320 320 320 319 318 319 322 320 320 324 323 328 327 325 324 322 324 322 322 322 322 321 321 321 319 319
303 304 303 304 305 304 303 305 306 305 306 309 313 315 315 314 318 317 318 318 317 316 316 317 318 322 322 320 323 328 328 327 325 325 324 324 323 322 322 323 322 321 322 321
302 303 300 300 304 304 304 307 310 310 309 314 315 314 313 313 316 314 316 315 315 315 315 315 316 318 322 324 326 325 327 328 326 325 325 325 324 323 322 322 322 322 320 321
302 302 302 302 304 307 307 308 308 309 312 312 313 313 313 312 313 311 315 315 314 315 315 314 315 315 321 326 328 327 326 322 326 326 325 325 325 324 323 323 323 322 321 321
305 303 303 303 300 305 306 306 306 311 312 312 311 311 311 311 311 312 315 314 313 313 313 314 314 314 316 322 325 328 325 324 325 325 325 325 325 325 325 324 324 323 321 320
307 305 303 304 301 304 308 310 310 309 310 310 310 309 308 311 315 315 312 311 310 311 312 312 312 311 311 316 321 324 324 323 323 323 324 324 324 325 324 323 321 318 317 315
307 307 305 301 303 306 309 309 310 309 308 308 308 308 311 311 313 311 308 308 308 307 308 308 310 311 310 311 313 317 317 317 317 319 321 321 321 320 319 319 314 311 310 310
305 304 308 307 307 307 309 309 309 309 308 307 308 311 310 310 310 308 307 306 304 304 305 303 306 307 308 308 310 310 310 312 313 313 311 310 310 307 305 304 299 298 297 296
304 304 306 307 305 306 307 307 308 308 308 308 310 309 308 308 307 304 303 303 301 301 301 301 302 301 301 302 305 307 305 305 307 307 305 303 303 301 298 297 294 293 291 292
306 306 305 306 306 306 307 307 308 308 308 309 309 308 306 304 306 304 303 299 298 298 298 298 298 298 296 298 298 299 299 300 301 299 295 294 294 293 292 292 290 292 292 292

GFSCGP_850_thetae_111.txt.gz
Theta_e
311 305 303 304 307 309 308 307 306 306 306 306 306 306 307 309 311 312 314 315 315 316 316 318 320 320 326 329 332 332 332 330 326 324 328 328 329 330 327 328 326 324 326 325
308 311 307 305 304 304 304 305 305 304 304 305 305 307 309 308 309 312 315 316 316 316 317 319 319 321 323 331 332 332 331 330 324 324 328 328 329 329 327 328 326 324 325 324
306 308 312 312 309 307 306 305 305 305 305 307 307 310 311 310 311 314 315 315 315 316 317 319 319 324 327 331 332 331 331 329 323 326 327 327 329 328 329 327 328 327 326 325
307 308 310 312 313 310 311 307 307 306 309 311 310 313 313 311 310 311 312 313 314 315 317 318 321 325 327 332 332 331 330 327 322 326 327 327 330 328 328 329 327 329 327 325
308 308 311 311 311 311 312 311 311 311 310 310 310 310 312 310 312 311 311 313 315 316 317 318 319 322 328 332 331 331 329 323 323 326 327 327 327 330 328 327 328 327 326 326
306 308 309 308 308 309 309 309 310 311 310 312 311 310 312 310 311 312 312 314 320 320 321 321 321 324 328 331 331 330 329 321 323 326 326 325 325 325 328 328 327 327 327 327
310 309 308 309 309 308 307 308 308 309 312 313 310 311 312 311 311 313 319 321 321 320 321 324 322 322 326 331 330 330 327 321 324 329 325 324 323 322 324 325 327 328 328 328
311 310 309 308 308 309 307 308 309 309 310 310 311 313 312 314 315 319 320 321 320 320 320 324 323 322 325 330 330 330 325 321 325 325 326 323 324 324 323 323 324 324 326 327
311 311 309 308 309 310 310 308 308 308 308 313 310 311 310 313 317 318 319 321 320 319 317 320 327 327 327 329 330 329 324 320 323 325 324 326 324 324 325 324 326 325 326 326
308 308 306 306 309 309 311 310 308 309 313 311 310 313 313 314 318 318 317 319 319 318 316 319 328 327 327 329 330 328 323 319 322 324 323 324 324 324 324 324 325 325 326 325
302 304 306 306 306 305 308 311 311 312 310 313 311 309 315 319 319 317 316 317 316 316 318 319 319 328 327 328 327 328 322 320 322 321 322 324 324 325 324 325 323 325 325 325
302 301 302 302 303 305 308 312 312 314 314 313 313 311 310 311 318 317 317 316 314 315 317 317 316 327 328 327 326 326 322 320 321 321 321 322 324 324 323 324 324 323 324 325
303 302 302 302 305 305 308 306 305 311 312 312 315 312 310 310 311 318 317 317 315 316 317 317 319 326 327 328 326 325 324 323 321 320 320 322 323 323 323 323 322 323 323 323
305 302 301 301 305 303 302 302 302 309 307 308 309 307 309 308 308 316 316 316 316 316 317 321 322 324 327 327 328 327 324 323 323 320 320 323 324 323 324 323 322 323 323 323
303 302 303 302 303 303 302 302 302 302 304 305 303 305 306 307 309 311 315 315 315 317 320 320 320 325 325 327 327 326 326 324 322 321 320 322 324 324 323 323 323 322 323 323
303 304 303 303 303 303 303 303 303 303 303 302 302 302 304 307 310 313 316 317 316 316 318 318 318 320 322 326 326 327 327 326 322 322 321 321 323 324 324 323 322 321 322 322
302 303 303 301 303 303 302 302 303 302 302 302 302 303 308 314 315 317 316 316 318 317 316 316 317 318 321 320 325 327 327 326 324 322 322 321 321 323 323 322 321 321 321 321
302 303 301 303 303 301 301 302 302 304 304 307 303 307 314 313 316 316 316 316 315 314 314 316 314 316 319 322 320 325 327 327 326 324 323 322 322 321 321 322 320 320 320 321
301 302 298 298 302 300 300 301 306 310 310 310 308 313 313 312 315 314 314 315 313 313 312 313 314 314 316 323 322 322 327 327 326 326 325 324 323 322 321 321 321 320 320 319
301 301 302 300 301 299 302 307 307 307 309 311 311 312 312 311 316 312 313 313 311 310 310 312 313 313 314 321 325 325 326 326 326 324 324 325 324 323 322 322 320 320 320 320
304 304 303 301 297 301 303 304 307 306 311 309 311 311 310 310 310 311 313 310 308 308 309 310 311 312 313 316 322 324 325 325 325 324 324 324 324 323 323 322 321 320 320 320
305 305 304 303 299 301 307 308 309 309 308 310 310 308 308 312 312 311 310 309 308 309 308 307 309 310 310 311 313 320 322 323 322 324 324 324 324 324 323 322 322 320 320 319
304 305 305 302 301 304 307 309 308 308 308 308 308 307 310 310 309 308 306 305 305 307 303 304 308 309 310 309 311 312 314 316 319 320 323 323 323 323 321 319 318 315 312 308
303 302 307 305 306 305 307 307 308 309 309 308 308 310 310 308 307 305 305 304 302 303 300 301 303 304 306 308 307 309 308 309 314 317 314 317 316 313 309 307 308 308 302 302
302 304 304 307 304 304 306 305 306 306 307 307 308 307 306 305 302 302 303 302 301 299 297 298 299 300 300 302 304 304 306 306 309 310 307 306 305 303 301 300 297 296 293 294
304 304 304 304 303 303 304 305 306 307 307 306 306 305 303 302 298 298 300 297 297 297 296 295 297 297 296 299 301 299 300 302 306 305 301 298 297 295 294 293 291 292 292 293